Location: Bellerive
(46.9237°N, 7.0223°E)
Time: 18:06:34
(UTC+00:00)

Cosmos 1174 - Pass Details

Date: 09 April 2020
Orbit: 371 x 1148 km, 66.1° (Epoch: 24 May)

Event Time Altitude Azimuth Distance (km) Brightness Sun altitude
Rises 19:54:44 0° 327° (NNW) 2,639 8.5 -16.9°
Reaches altitude 10° 19:56:43 10° 331° (NNW) 1,845 7.4 -17.1°
Maximum altitude 20:00:50 65° 54° (NE) 716 4.2 -17.7°
Enters shadow 20:02:47 35° 123° (ESE) 1,117 4.8 -18.0°
